Content
SEND FEEDBACK

Daily
Averages
Monthly
Summary
Philippines

ANGELES CITY, PHILIPPINES


Home > Asia > Philippines
Elevation: 490 feet     Latitude: 15 11N     Longitude: 120 33E

WEATHER
 
SELECT A DAY
Number of Records: 93,774;   Date Range: 2/13/97 - 9/3/14
 
SHARE

PRINT THIS DATA

[ ← Previous Day ]
WEATHER ALMANAC - MAY 7, 2013
[ Next Day → ]
[ °C ]   °F
Weather ElementAverageHighLow
Temperature86 °F95 °F (1:00 pm)77 °F (2:00 am)
Dewpoint70.5 °F71.6 °F (3:00 am)68 °F (3:00 pm)
Humidity61.4 %83 % (3:00 am)41 % (3:00 pm)
Barometer29.80 in29.86 in (8:00 am)29.74 in (4:00 pm)
Wind Speed5.8 mph9.2 mph (7:00 pm)
Wind Gust29.9 mph (8:00 pm)
Weather ElementAverage
Visibility6.1 mi
Wind DirectionSSE (150 °)

Weather ElementTotal
Precipitation---
Cooling Degree Days21 (Base 65)
Growing Degree Days36 (Base 50)
Averaged from 22 records on May 7, 2013
WEATHER CONDITIONS BREAKOUT
WIND DIRECTION BREAKOUT
WEATHER BY HOUR - MAY 7, 2013
[ °C ]   °F
Local TimeTemperatureDewpointHumidityBarometerVisibilityWind DirectionWind SpeedGust SpeedPrecipitationEventsConditions
1:00 AM78.8 °F69.8 °F74 %29.80 in6.2 miNW (310°)4.6 mph26.5 mphMostly Cloudy
2:00 AM77.0 °F69.8 °F78 %29.80 in6.2 miVariable3.5 mphMostly Cloudy
3:00 AM77.0 °F71.6 °F83 %29.77 in6.2 miNW (320°)5.8 mph27.6 mphMostly Cloudy
4:00 AM77.0 °F71.6 °F83 %29.77 in6.2 miWest (280°)5.8 mphMostly Cloudy
5:00 AM77.0 °F69.8 °F78 %29.80 in6.2 miWNW (300°)4.6 mph21.9 mphMostly Cloudy
6:00 AM77.0 °F69.8 °F78 %29.80 in6.2 miWest (260°)4.6 mph21.9 mphMostly Cloudy
7:00 AM82.4 °F71.6 °F70 %29.83 in6.2 miVariable2.3 mphScattered Clouds
8:00 AM86.0 °F69.8 °F58 %29.86 in6.2 miNorth (360°)4.6 mphScattered Clouds
9:00 AM87.8 °F69.8 °F55 %29.86 in6.2 miNNW (330°)6.9 mphScattered Clouds
10:00 AM91.4 °F71.6 °F52 %29.86 in6.2 miNorth (10°)6.9 mphMostly Cloudy
11:00 AM93.2 °F69.8 °F46 %29.80 in6.2 miNNE (20°)6.9 mph18.4 mphMostly Cloudy
1:00 PM95.0 °F69.8 °F44 %29.80 in6.2 miEast (80°)5.8 mphMostly Cloudy
2:00 PM95.0 °F71.6 °F47 %29.77 in6.2 miEast (90°)2.3 mphMostly Cloudy
3:00 PM95.0 °F68.0 °F41 %29.77 in6.2 miEast (100°)8.1 mphMostly Cloudy
4:00 PM95.0 °F68.0 °F41 %29.74 in6.2 miEast (100°)8.1 mphMostly Cloudy
5:00 PM95.0 °F69.8 °F44 %29.74 in6.2 miEast (90°)6.9 mphMostly Cloudy
6:00 PM91.4 °F69.8 °F49 %29.77 in6.2 miESE (120°)8.1 mphScattered Clouds
7:00 PM87.8 °F71.6 °F58 %29.80 in6.2 miSE (140°)9.2 mphScattered Clouds
8:00 PM86.0 °F71.6 °F62 %29.83 in5.0 miNNE (20°)8.1 mph29.9 mphOvercast
9:00 PM82.4 °F71.6 °F70 %29.83 inVariable3.5 mphMostly Cloudy
10:00 PM82.4 °F71.6 °F70 %29.83 inNNE (20°)5.8 mphOvercast
11:00 PM82.4 °F71.6 °F70 %29.86 inNorth (350°)5.8 mphOvercast
Hourly data recorded from RPLC, located miles away from Angeles City, Philippines







STORIES FROM OUR PARTNERS